SAST,Max TemperatureF,Mean TemperatureF,Min TemperatureF,Max Dew PointF,MeanDew PointF,Min DewpointF,Max Humidity, Mean Humidity, Min Humidity, Max Sea Level PressureIn, Mean Sea Level PressureIn, Min Sea Level PressureIn, Max VisibilityMiles, Mean VisibilityMiles, Min VisibilityMiles, Max Wind SpeedMPH, Mean Wind SpeedMPH, Max Gust SpeedMPH,PrecipitationIn, CloudCover, Events, WindDirDegrees
2011-9-1,68,57,46,52,49,41,100,79,52,30.09,29.91,29.80,6,6,4,13,4,,0.00,1,,253
2011-9-2,60,54,48,50,44,37,94,72,42,30.24,29.98,29.77,6,6,4,34,22,51,0.00,6,Rain,271
2011-9-3,60,52,44,48,41,36,88,68,48,30.30,30.21,30.15,6,6,6,17,12,,0.00,4,,277
2011-9-4,62,56,51,55,50,45,94,78,63,30.21,30.19,30.12,6,6,4,20,9,,0.00,6,Rain,258
2011-9-5,66,56,46,55,51,45,100,88,68,30.21,30.15,30.09,6,6,5,9,3,,0.00,3,,324
2011-9-6,60,53,46,54,51,45,100,91,72,30.21,30.17,30.12,6,5,2,12,4,,0.00,6,Fog,67
2011-9-7,71,58,44,61,52,45,100,89,68,30.15,30.09,29.95,5,2,0,8,4,,0.00,3,Fog,336
2011-9-8,86,70,51,55,45,21,94,61,10,29.95,29.83,29.74,6,6,6,23,9,21,0.00,2,,102
2011-9-9,64,57,50,52,48,41,100,72,59,30.06,29.98,29.89,6,6,6,8,5,,0.00,3,,146
2011-9-10,60,56,51,52,49,45,94,76,55,30.24,30.17,30.06,6,6,6,15,6,,0.00,4,,99
2011-9-11,64,58,51,55,51,48,100,83,63,30.15,30.05,29.95,6,6,5,8,5,,0.00,5,,176
2011-9-12,57,52,48,55,52,48,100,96,88,30.09,29.99,29.92,6,5,3,8,4,,0.00,6,,289
2011-9-13,68,58,48,54,49,45,94,75,43,30.09,30.01,29.95,6,6,6,13,6,,0.00,3,,276
2011-9-14,60,56,53,54,50,46,100,78,63,30.12,30.08,30.01,6,6,3,12,6,,0.00,5,Rain,238
2011-9-15,66,58,50,54,49,46,100,77,52,30.33,30.14,30.01,6,6,6,28,10,,0.00,4,,287
2011-9-16,62,55,48,50,47,43,93,75,52,30.39,30.29,30.18,6,6,6,14,7,,0.00,5,,9
2011-9-17,75,60,44,57,46,34,94,66,22,30.15,29.96,29.80,,,,8,4,,0.00,,,325
2011-9-18,69,58,48,52,47,39,93,69,38,30.01,29.85,29.77,6,6,2,28,11,39,0.00,5,Rain,256
2011-9-19,59,54,48,46,44,41,87,72,51,30.21,30.13,30.01,6,6,6,18,14,,0.00,5,Rain,269
2011-9-20,60,56,50,50,44,39,82,68,48,30.24,30.16,30.12,6,6,6,17,10,,0.00,6,,276
2011-9-21,60,54,48,52,48,45,94,81,63,30.33,30.28,30.21,6,6,3,14,8,,0.00,4,Rain,266
2011-9-22,62,53,44,52,48,43,93,81,67,30.36,30.25,30.18,6,6,6,15,5,,0.00,4,,275
2011-9-23,62,54,46,54,47,41,88,75,55,30.48,30.41,30.36,6,6,6,14,7,,0.00,2,,281
2011-9-24,66,56,46,55,50,45,94,80,52,30.42,30.30,30.15,6,5,4,23,6,,0.00,1,,81
2011-9-25,82,65,48,57,49,43,100,63,26,30.15,30.00,29.89,,,,8,4,,0.00,,,105
2011-9-26,66,60,53,54,52,46,100,77,60,30.15,30.01,29.89,6,6,3,17,7,,0.00,3,,263
2011-9-27,62,56,51,52,50,48,94,77,59,30.18,30.15,30.12,6,6,6,13,6,,0.00,3,,248
2011-9-28,75,60,46,55,50,45,94,72,34,30.12,29.96,29.80,6,6,6,10,4,,0.00,1,,46
2011-9-29,60,58,55,55,51,45,100,79,63,30.18,30.05,29.95,6,6,3,16,10,,0.00,6,,265
2011-9-30,62,56,50,46,43,39,82,62,42,30.21,30.15,30.09,6,6,6,10,8,,0.00,4,,236